,,Stat6,,Stat2,,Stat8,,Stat9,,Stat10,,Wind1,,Wind1,
time,status,PA1M_AVG,status,PR1M_SUM,status,RH1M_AVG,status,SR1M_AVG,status,TA1M_AVG,status,W1dAve1m,status,W1sAve1m,
2004-04-06, 00:00:00,VALID,919.438,VALID,0,VALID,100,VALID,0.0169808,VALID,19.7343,VALID,39,VALID,0.449886,
2004-04-06, 00:01:00,VALID,919.434,VALID,0,VALID,100,VALID,0.0169808,VALID,19.7052,VALID,40,VALID,0.409446,
2004-04-06, 00:02:00,VALID,919.418,VALID,0,VALID,100,VALID,0.0169808,VALID,19.6863,VALID,41,VALID,0.4375,
2004-04-06, 00:03:00,VALID,919.401,VALID,0,VALID,100,VALID,0,VALID,19.6568,VALID,43,VALID,0.359933,
2004-04-06, 00:04:00,VALID,919.397,VALID,0,VALID,100,VALID,0.0339617,VALID,19.6501,VALID,44,VALID,0.355923,
2004-04-06, 00:05:00,VALID,919.383,VALID,0,VALID,100,VALID,0.0509425,VALID,19.6498,VALID,44,VALID,0.161882,
2004-04-06, 00:06:00,VALID,919.378,VALID,0,VALID,100,VALID,0.0169808,VALID,19.6754,VALID,44,VALID,0,
2004-04-06, 00:07:00,VALID,919.374,VALID,0,VALID,100,VALID,0,VALID,19.7144,VALID,41,VALID,0.0681641,
2004-04-06, 00:08:00,VALID,919.37,VALID,0,VALID,100,VALID,0.0679233,VALID,19.7345,VALID,282,VALID,0.374238,
2004-04-06, 00:09:00,VALID,919.355,VALID,0,VALID,100,VALID,0.0169808,VALID,19.7144,VALID,238,VALID,0.716077,
2004-04-06, 00:10:00,VALID,919.346,VALID,0,VALID,100,VALID,0.0509425,VALID,19.7504,VALID,229,VALID,0.448661,
2004-04-06, 00:11:00,VALID,919.344,VALID,0,VALID,100,VALID,0.0509425,VALID,19.7926,VALID,221,VALID,0.217187,
2004-04-06, 00:12:00,VALID,919.313,VALID,0,VALID,100,VALID,0,VALID,19.8217,VALID,221,VALID,0,
2004-04-06, 00:13:00,VALID,919.302,VALID,0,VALID,100,VALID,0.0339617,VALID,19.8247,VALID,222,VALID,0.152902,
2004-04-06, 00:14:00,VALID,919.289,VALID,0,VALID,100,VALID,0.0169808,VALID,19.8346,VALID,222,VALID,0.215116,
2004-04-06, 00:15:00,VALID,919.264,VALID,0,VALID,100,VALID,0.0169808,VALID,19.8279,VALID,211,VALID,0.355655,
2004-04-06, 00:16:00,VALID,919.256,VALID,0,VALID,100,VALID,0.0339617,VALID,19.8244,VALID,211,VALID,0.0666921,
2004-04-06, 00:17:00,VALID,919.244,VALID,0,VALID,100,VALID,-0.0169808,VALID,19.855,VALID,192,VALID,0.348323,
2004-04-06, 00:18:00,VALID,919.251,VALID,0,VALID,100,VALID,-0.0509425,VALID,19.8319,VALID,187,VALID,0.259115,
2004-04-06, 00:19:00,VALID,919.247,VALID,0,VALID,100,VALID,-0.0169808,VALID,19.8391,VALID,172,VALID,0.2234,
2004-04-06, 00:20:00,VALID,919.24,VALID,0,VALID,100,VALID,-0.0849042,VALID,19.823,VALID,172,VALID,0.0357143,
2004-04-06, 00:21:00,VALID,919.242,VALID,0,VALID,100,VALID,-0.0339617,VALID,19.8356,VALID,172,VALID,0,
2004-04-06, 00:22:00,VALID,919.24,VALID,0,VALID,100,VALID,-0.0509425,VALID,19.8808,VALID,172,VALID,0,
2004-04-06, 00:23:00,VALID,919.233,VALID,0,VALID,100,VALID,0,VALID,19.9069,VALID,172,VALID,0,
2004-04-06, 00:24:00,VALID,919.214,VALID,0,VALID,100,VALID,-0.0679233,VALID,19.8779,VALID,172,VALID,0,
2004-04-06, 00:25:00,VALID,919.204,VALID,0,VALID,100,VALID,-0.0849042,VALID,19.8585,VALID,172,VALID,0,
2004-04-06, 00:26:00,VALID,919.175,VALID,0,VALID,100,VALID,-0.0679233,VALID,19.852,VALID,172,VALID,0,
2004-04-06, 00:27:00,VALID,919.138,VALID,0,VALID,100,VALID,-0.0509425,VALID,19.8485,VALID,172,VALID,0,
2004-04-06, 00:28:00,VALID,919.104,VALID,0,VALID,100,VALID,-0.0679233,VALID,19.855,VALID,172,VALID,0,
2004-04-06, 00:29:00,VALID,919.071,VALID,0,VALID,100,VALID,-0.0339617,VALID,19.8483,VALID,172,VALID,0.203852,
2004-04-06, 00:30:00,VALID,919.041,VALID,0,VALID,100,VALID,-0.0339617,VALID,19.8679,VALID,149,VALID,0.335405,
2004-04-06, 00:31:00,VALID,919.03,VALID,0,VALID,100,VALID,-0.0509425,VALID,19.8739,VALID,122,VALID,0.380035,
2004-04-06, 00:32:00,VALID,919.013,VALID,0,VALID,100,VALID,-0.0849042,VALID,19.8451,VALID,122,VALID,0.176953,
2004-04-06, 00:33:00,VALID,919,VALID,0,VALID,100,VALID,-0.0339617,VALID,19.8259,VALID,122,VALID,0.00213068,
2004-04-06, 00:34:00,VALID,918.982,VALID,0,VALID,100,VALID,-0.0849042,VALID,19.8262,VALID,122,VALID,0,
2004-04-06, 00:35:00,VALID,918.963,VALID,0,VALID,100,VALID,-0.0679233,VALID,19.8615,VALID,122,VALID,0,
2004-04-06, 00:36:00,VALID,918.943,VALID,0,VALID,100,VALID,-0.0339617,VALID,19.9096,VALID,122,VALID,0.0365189,
2004-04-06, 00:37:00,VALID,918.922,VALID,0,VALID,100,VALID,-0.0339617,VALID,19.9713,VALID,122,VALID,0.181021,
2004-04-06, 00:38:00,VALID,918.891,VALID,0,VALID,100,VALID,-0.0339617,VALID,19.9971,VALID,122,VALID,0.14403,
2004-04-06, 00:39:00,VALID,918.854,VALID,0,VALID,100,VALID,-0.0339617,VALID,19.9973,VALID,122,VALID,0.0972656,
2004-04-06, 00:40:00,VALID,918.836,VALID,0,VALID,100,VALID,-0.0339617,VALID,19.9775,VALID,122,VALID,0.0628906,
2004-04-06, 00:41:00,VALID,918.795,VALID,0,VALID,100,VALID,-0.0509425,VALID,19.9419,VALID,122,VALID,0.134993,
2004-04-06, 00:42:00,VALID,918.785,VALID,0,VALID,100,VALID,-0.0849042,VALID,19.939,VALID,122,VALID,0.383681,
2004-04-06, 00:43:00,VALID,918.772,VALID,0,VALID,100,VALID,0,VALID,19.9034,VALID,122,VALID,0.543527,
2004-04-06, 00:44:00,VALID,918.761,VALID,0,VALID,100,VALID,-0.0679233,VALID,19.8806,VALID,122,VALID,0.653764,
2004-04-06, 00:45:00,VALID,918.767,VALID,0,VALID,100,VALID,-0.0509425,VALID,19.8575,VALID,122,VALID,0.84561,
2004-04-06, 00:46:00,VALID,918.739,VALID,0,VALID,100,VALID,0,VALID,19.8639,VALID,121,VALID,1.07752,
2004-04-06, 00:47:00,VALID,918.722,VALID,0,VALID,100,VALID,-0.0169808,VALID,19.861,VALID,122,VALID,1.34557,
2004-04-06, 00:48:00,VALID,918.703,VALID,0,VALID,100,VALID,-0.0339617,VALID,19.8615,VALID,121,VALID,1.30414,
2004-04-06, 00:49:00,VALID,918.675,VALID,0,VALID,100,VALID,-0.0509425,VALID,19.8647,VALID,123,VALID,1.23544,
2004-04-06, 00:50:00,VALID,918.647,VALID,0,VALID,100,VALID,-0.0339617,VALID,19.8741,VALID,129,VALID,1.36923,
2004-04-06, 00:51:00,VALID,918.628,VALID,0,VALID,100,VALID,-0.0509425,VALID,19.8875,VALID,129,VALID,1.08817,
2004-04-06, 00:52:00,VALID,918.594,VALID,0,VALID,100,VALID,0,VALID,19.8739,VALID,142,VALID,1.07517,
2004-04-06, 00:53:00,VALID,918.578,VALID,0,VALID,100,VALID,-0.0339617,VALID,19.8642,VALID,135,VALID,1.07069,
2004-04-06, 00:54:00,VALID,918.569,VALID,0,VALID,100,VALID,-0.0339617,VALID,19.854,VALID,143,VALID,1.0426,
2004-04-06, 00:55:00,VALID,918.547,VALID,0,VALID,100,VALID,-0.0339617,VALID,19.8674,VALID,136,VALID,1.15067,
2004-04-06, 00:56:00,VALID,918.543,VALID,0,VALID,100,VALID,-0.0339617,VALID,19.8485,VALID,142,VALID,0.872852,
2004-04-06, 00:57:00,VALID,918.525,VALID,0,VALID,100,VALID,-0.0509425,VALID,19.8289,VALID,124,VALID,0.95293,
2004-04-06, 00:58:00,VALID,918.498,VALID,0,VALID,100,VALID,-0.0339617,VALID,19.813,VALID,128,VALID,1.34338,
2004-04-06, 00:59:00,VALID,918.465,VALID,0,VALID,100,VALID,-0.0339617,VALID,19.7996,VALID,139,VALID,1.05384,
2004-04-06, 01:00:00,VALID,918.435,VALID,0,VALID,100,VALID,-0.0509425,VALID,19.8033,VALID,133,VALID,1.00462,
2004-04-06, 01:01:00,VALID,918.394,VALID,0,VALID,100,VALID,0,VALID,19.8031,VALID,134,VALID,0.817969,
2004-04-06, 01:02:00,VALID,918.355,VALID,0,VALID,100,VALID,-0.0169808,VALID,19.8031,VALID,131,VALID,1.16761,
2004-04-06, 01:03:00,VALID,918.326,VALID,0,VALID,100,VALID,-0.0339617,VALID,19.7964,VALID,135,VALID,0.685683,
2004-04-06, 01:04:00,VALID,918.328,VALID,0,VALID,100,VALID,0,VALID,19.7894,VALID,124,VALID,1.23473,
2004-04-06, 01:05:00,VALID,918.312,VALID,0,VALID,100,VALID,-0.0169808,VALID,19.7867,VALID,124,VALID,1.11646,
2004-04-06, 01:06:00,VALID,918.298,VALID,0,VALID,100,VALID,0,VALID,19.8066,VALID,133,VALID,0.917578,
2004-04-06, 01:07:00,VALID,918.288,VALID,0,VALID,100,VALID,0,VALID,19.7996,VALID,129,VALID,0.950521,
2004-04-06, 01:08:00,VALID,918.266,VALID,0,VALID,100,VALID,-0.0339617,VALID,19.8063,VALID,126,VALID,1.00057,
2004-04-06, 01:09:00,VALID,918.239,VALID,0,VALID,100,VALID,-0.0509425,VALID,19.816,VALID,152,VALID,0.920898,
2004-04-06, 01:10:00,VALID,918.22,VALID,0,VALID,100,VALID,-0.0339617,VALID,19.8125,VALID,142,VALID,1.23692,
2004-04-06, 01:11:00,VALID,918.196,VALID,0,VALID,100,VALID,-0.0169808,VALID,19.8192,VALID,144,VALID,0.986683,
2004-04-06, 01:12:00,VALID,918.166,VALID,0,VALID,100,VALID,0,VALID,19.8192,VALID,132,VALID,0.710756,
2004-04-06, 01:13:00,VALID,918.147,VALID,0,VALID,100,VALID,0,VALID,19.8319,VALID,125,VALID,0.528161,
2004-04-06, 01:14:00,VALID,918.134,VALID,0,VALID,100,VALID,0,VALID,19.8354,VALID,119,VALID,0.759233,
2004-04-06, 01:15:00,VALID,918.124,VALID,0,VALID,100,VALID,0,VALID,19.8287,VALID,118,VALID,0.963601,
2004-04-06, 01:16:00,VALID,918.121,VALID,0,VALID,100,VALID,0,VALID,19.8225,VALID,125,VALID,0.883384,
2004-04-06, 01:17:00,VALID,918.11,VALID,0,VALID,100,VALID,-0.101885,VALID,19.8458,VALID,109,VALID,0.448847,
2004-04-06, 01:18:00,VALID,918.109,VALID,0,VALID,100,VALID,-0.0849042,VALID,19.8426,VALID,63,VALID,0.533736,
2004-04-06, 01:19:00,VALID,918.099,VALID,0,VALID,100,VALID,-0.0679233,VALID,19.8289,VALID,82,VALID,0.625868,
2004-04-06, 01:20:00,VALID,918.066,VALID,0,VALID,100,VALID,-0.0679233,VALID,19.816,VALID,69,VALID,0.67351,
2004-04-06, 01:21:00,VALID,918.043,VALID,0,VALID,100,VALID,-0.101885,VALID,19.816,VALID,53,VALID,0.810404,
2004-04-06, 01:22:00,VALID,918.019,VALID,0,VALID,100,VALID,-0.0509425,VALID,19.8356,VALID,62,VALID,0.594815,
2004-04-06, 01:23:00,VALID,917.988,VALID,0,VALID,100,VALID,-0.0679233,VALID,19.8195,VALID,69,VALID,0.889101,
2004-04-06, 01:24:00,VALID,917.953,VALID,0,VALID,100,VALID,-0.101885,VALID,19.8006,VALID,74,VALID,0.659702,
2004-04-06, 01:25:00,VALID,917.931,VALID,0,VALID,100,VALID,-0.0849042,VALID,19.7847,VALID,71,VALID,0.527344,
2004-04-06, 01:26:00,VALID,917.921,VALID,0,VALID,100,VALID,-0.0849042,VALID,19.7646,VALID,66,VALID,0.766927,
2004-04-06, 01:27:00,VALID,917.907,VALID,0,VALID,100,VALID,-0.0679233,VALID,19.7479,VALID,99,VALID,0.917225,
2004-04-06, 01:28:00,VALID,917.885,VALID,0,VALID,100,VALID,-0.0679233,VALID,19.7092,VALID,74,VALID,0.955256,
2004-04-06, 01:29:00,VALID,917.882,VALID,0,VALID,100,VALID,-0.0849042,VALID,19.7199,VALID,79,VALID,0.735328,
2004-04-06, 01:30:00,VALID,917.877,VALID,0,VALID,100,VALID,-0.101885,VALID,19.7032,VALID,120,VALID,0.982337,
2004-04-06, 01:31:00,VALID,917.863,VALID,0,VALID,100,VALID,-0.0849042,VALID,19.6796,VALID,122,VALID,1.08736,
2004-04-06, 01:32:00,VALID,917.851,VALID,0,VALID,100,VALID,0.0509425,VALID,19.6856,VALID,110,VALID,0.836682,
2004-04-06, 01:33:00,VALID,917.859,VALID,0,VALID,100,VALID,0,VALID,19.6563,VALID,115,VALID,0.900856,
2004-04-06, 01:34:00,VALID,917.846,VALID,0,VALID,100,VALID,0,VALID,19.654,VALID,121,VALID,0.687128,
2004-04-06, 01:35:00,VALID,917.827,VALID,0,VALID,100,VALID,0.0339617,VALID,19.6501,VALID,133,VALID,0.880145,
2004-04-06, 01:36:00,VALID,917.81,VALID,0,VALID,100,VALID,0,VALID,19.6337,VALID,137,VALID,0.894804,
2004-04-06, 01:37:00,VALID,917.799,VALID,0,VALID,100,VALID,0.0169808,VALID,19.6471,VALID,136,VALID,0.726758,
2004-04-06, 01:38:00,VALID,917.781,VALID,0,VALID,100,VALID,0.0339617,VALID,19.6439,VALID,137,VALID,0.387962,
2004-04-06, 01:39:00,VALID,917.779,VALID,0,VALID,100,VALID,0.0169808,VALID,19.6374,VALID,137,VALID,0.336979,
2004-04-06, 01:40:00,VALID,917.749,VALID,0,VALID,100,VALID,0.0339617,VALID,19.624,VALID,132,VALID,0.429324,
2004-04-06, 01:41:00,VALID,917.755,VALID,0,VALID,100,VALID,0.0339617,VALID,19.627,VALID,130,VALID,0.616806,
2004-04-06, 01:42:00,VALID,917.747,VALID,0,VALID,100,VALID,0.0509425,VALID,19.6138,VALID,130,VALID,0.559304,
2004-04-06, 01:43:00,VALID,917.735,VALID,0,VALID,100,VALID,0.0169808,VALID,19.6178,VALID,130,VALID,0.426314,
2004-04-06, 01:44:00,VALID,917.727,VALID,0,VALID,100,VALID,0.0169808,VALID,19.6178,VALID,129,VALID,0.413872,
2004-04-06, 01:45:00,VALID,917.703,VALID,0,VALID,100,VALID,0.0339617,VALID,19.6016,VALID,125,VALID,0.348437,
2004-04-06, 01:46:00,VALID,917.692,VALID,0,VALID,100,VALID,0.0169808,VALID,19.6019,VALID,117,VALID,0.307231,
2004-04-06, 01:47:00,VALID,917.682,VALID,0,VALID,100,VALID,-0.0679233,VALID,19.5934,VALID,117,VALID,0.304116,
2004-04-06, 01:48:00,VALID,917.672,VALID,0,VALID,100,VALID,-0.0509425,VALID,19.5966,VALID,112,VALID,0.348958,
2004-04-06, 01:49:00,VALID,917.681,VALID,0,VALID,100,VALID,-0.0679233,VALID,19.6036,VALID,109,VALID,0.376172,
2004-04-06, 01:50:00,VALID,917.666,VALID,0,VALID,100,VALID,-0.0849042,VALID,19.6031,VALID,105,VALID,0.43407,
2004-04-06, 01:51:00,VALID,917.662,VALID,0,VALID,100,VALID,-0.101885,VALID,19.6066,VALID,101,VALID,0.471912,
2004-04-06, 01:52:00,VALID,917.661,VALID,0,VALID,100,VALID,-0.101885,VALID,19.5939,VALID,101,VALID,0.416061,
2004-04-06, 01:53:00,VALID,917.645,VALID,0,VALID,100,VALID,-0.0849042,VALID,19.5778,VALID,101,VALID,0.314918,
2004-04-06, 01:54:00,VALID,917.638,VALID,0,VALID,100,VALID,-0.101885,VALID,19.5745,VALID,101,VALID,0.336682,
2004-04-06, 01:55:00,VALID,917.624,VALID,0,VALID,100,VALID,-0.0339617,VALID,19.5616,VALID,101,VALID,0.43559,
2004-04-06, 01:56:00,VALID,917.615,VALID,0,VALID,100,VALID,-0.0849042,VALID,19.542,VALID,95,VALID,0.41847,
2004-04-06, 01:57:00,VALID,917.602,VALID,0,VALID,100,VALID,-0.0679233,VALID,19.581,VALID,81,VALID,0.462126,
2004-04-06, 01:58:00,VALID,917.596,VALID,0,VALID,100,VALID,-0.101885,VALID,19.5812,VALID,70,VALID,0.486607,
2004-04-06, 01:59:00,VALID,917.592,VALID,0,VALID,100,VALID,-0.0849042,VALID,19.5743,VALID,62,VALID,0.504439,
2004-04-06, 02:00:00,VALID,917.585,VALID,0,VALID,100,VALID,-0.101885,VALID,19.5616,VALID,60,VALID,0.416969,
2004-04-06, 02:01:00,VALID,917.573,VALID,0,VALID,100,VALID,-0.0849042,VALID,19.542,VALID,60,VALID,0.190358,
2004-04-06, 02:02:00,VALID,917.573,VALID,0,VALID,100,VALID,-0.0509425,VALID,19.5554,VALID,60,VALID,0,
2004-04-06, 02:03:00,VALID,917.57,VALID,0,VALID,100,VALID,-0.101885,VALID,19.545,VALID,60,VALID,0,
2004-04-06, 02:04:00,VALID,917.535,VALID,0,VALID,100,VALID,-0.0339617,VALID,19.548,VALID,60,VALID,0,
2004-04-06, 02:05:00,VALID,917.534,VALID,0,VALID,100,VALID,-0.101885,VALID,19.5485,VALID,60,VALID,0.170312,
2004-04-06, 02:06:00,VALID,917.505,VALID,0,VALID,100,VALID,-0.0679233,VALID,19.5522,VALID,60,VALID,0.0122768,
2004-04-06, 02:07:00,VALID,917.493,VALID,0,VALID,100,VALID,-0.0509425,VALID,19.542,VALID,60,VALID,0,
2004-04-06, 02:08:00,VALID,917.476,VALID,0,VALID,100,VALID,-0.0849042,VALID,19.5418,VALID,60,VALID,0,
2004-04-06, 02:09:00,VALID,917.476,VALID,0,VALID,100,VALID,-0.0339617,VALID,19.5254,VALID,60,VALID,0,
2004-04-06, 02:10:00,VALID,917.453,VALID,0,VALID,100,VALID,-0.0339617,VALID,19.5162,VALID,60,VALID,0,
2004-04-06, 02:11:00,VALID,917.464,VALID,0,VALID,100,VALID,-0.0509425,VALID,19.5062,VALID,60,VALID,0,
2004-04-06, 02:12:00,VALID,917.458,VALID,0,VALID,100,VALID,-0.0849042,VALID,19.5196,VALID,60,VALID,0,
2004-04-06, 02:13:00,VALID,917.455,VALID,0,VALID,100,VALID,-0.0169808,VALID,19.5283,VALID,60,VALID,0,
2004-04-06, 02:14:00,VALID,917.45,VALID,0,VALID,100,VALID,-0.101885,VALID,19.5487,VALID,60,VALID,0,
2004-04-06, 02:15:00,VALID,917.422,VALID,0,VALID,100,VALID,-0.0849042,VALID,19.5388,VALID,61,VALID,0.0958807,
2004-04-06, 02:16:00,VALID,917.415,VALID,0,VALID,100,VALID,-0.0679233,VALID,19.5487,VALID,69,VALID,0.147675,
2004-04-06, 02:17:00,VALID,917.412,VALID,0,VALID,100,VALID,0.0339617,VALID,19.5276,VALID,69,VALID,0.0862926,
2004-04-06, 02:18:00,VALID,917.41,VALID,0,VALID,100,VALID,0.0679233,VALID,19.5075,VALID,69,VALID,0.132813,
2004-04-06, 02:19:00,VALID,917.41,VALID,0,VALID,100,VALID,0.0509425,VALID,19.4983,VALID,69,VALID,0.169829,
2004-04-06, 02:20:00,VALID,917.397,VALID,0,VALID,100,VALID,0,VALID,19.5055,VALID,69,VALID,0.243096,
2004-04-06, 02:21:00,VALID,917.397,VALID,0,VALID,100,VALID,0.0339617,VALID,19.4856,VALID,71,VALID,0.349864,
2004-04-06, 02:22:00,VALID,917.391,VALID,0,VALID,100,VALID,0.0509425,VALID,19.4764,VALID,102,VALID,0.448611,
2004-04-06, 02:23:00,VALID,917.378,VALID,0,VALID,100,VALID,0.0169808,VALID,19.473,VALID,103,VALID,0.236607,
2004-04-06, 02:24:00,VALID,917.365,VALID,0,VALID,100,VALID,0.0169808,VALID,19.4667,VALID,103,VALID,0.083939,
2004-04-06, 02:25:00,VALID,917.366,VALID,0,VALID,100,VALID,0.0169808,VALID,19.4531,VALID,103,VALID,0.301897,
2004-04-06, 02:26:00,VALID,917.354,VALID,0,VALID,100,VALID,0.0169808,VALID,19.4536,VALID,103,VALID,0.281432,
2004-04-06, 02:27:00,VALID,917.347,VALID,0,VALID,100,VALID,0.0169808,VALID,19.4307,VALID,103,VALID,0.137429,
2004-04-06, 02:28:00,VALID,917.355,VALID,0,VALID,100,VALID,0.0169808,VALID,19.4312,VALID,103,VALID,0.170987,
2004-04-06, 02:29:00,VALID,917.342,VALID,0,VALID,100,VALID,0.0169808,VALID,19.4084,VALID,103,VALID,0.210938,
2004-04-06, 02:30:00,VALID,917.34,VALID,0,VALID,100,VALID,0,VALID,19.4022,VALID,110,VALID,0.118676,
2004-04-06, 02:31:00,VALID,917.329,VALID,0,VALID,100,VALID,0,VALID,19.4056,VALID,146,VALID,0.148628,
2004-04-06, 02:32:00,VALID,917.322,VALID,0,VALID,100,VALID,0,VALID,19.3823,VALID,146,VALID,0.238735,
2004-04-06, 02:33:00,VALID,917.311,VALID,0,VALID,100,VALID,0,VALID,19.3957,VALID,146,VALID,0.574963,
2004-04-06, 02:34:00,VALID,917.296,VALID,0,VALID,100,VALID,0,VALID,19.3955,VALID,151,VALID,0.68045,
2004-04-06, 02:35:00,VALID,917.291,VALID,0,VALID,100,VALID,0.0169808,VALID,19.4027,VALID,161,VALID,0.533612,
2004-04-06, 02:36:00,VALID,917.27,VALID,0,VALID,100,VALID,0,VALID,19.4059,VALID,160,VALID,0.417878,
2004-04-06, 02:37:00,VALID,917.269,VALID,0,VALID,100,VALID,0.0169808,VALID,19.3989,VALID,141,VALID,0.490007,
2004-04-06, 02:38:00,VALID,917.258,VALID,0,VALID,100,VALID,0,VALID,19.4091,VALID,133,VALID,0.521019,
2004-04-06, 02:39:00,VALID,917.236,VALID,0,VALID,100,VALID,0,VALID,19.4022,VALID,133,VALID,0.435096,
2004-04-06, 02:40:00,VALID,917.227,VALID,0,VALID,100,VALID,0.0169808,VALID,19.4119,VALID,128,VALID,0.517721,
2004-04-06, 02:41:00,VALID,917.226,VALID,0,VALID,100,VALID,0.0339617,VALID,19.3985,VALID,121,VALID,0.272656,
2004-04-06, 02:42:00,VALID,917.215,VALID,0,VALID,100,VALID,0,VALID,19.3855,VALID,96,VALID,0.375727,
2004-04-06, 02:43:00,VALID,917.205,VALID,0,VALID,100,VALID,0,VALID,19.3602,VALID,83,VALID,0.474085,
2004-04-06, 02:44:00,VALID,917.196,VALID,0,VALID,100,VALID,0.0339617,VALID,19.3634,VALID,79,VALID,0.598722,
2004-04-06, 02:45:00,VALID,917.171,VALID,0,VALID,100,VALID,0,VALID,19.3664,VALID,72,VALID,0.795422,
2004-04-06, 02:46:00,VALID,917.177,VALID,0,VALID,100,VALID,0.0169808,VALID,19.357,VALID,81,VALID,0.986923,
2004-04-06, 02:47:00,VALID,917.165,VALID,0,VALID,100,VALID,0.0679233,VALID,19.3691,VALID,81,VALID,1.05878,
2004-04-06, 02:48:00,VALID,917.171,VALID,0,VALID,100,VALID,0.0339617,VALID,19.3763,VALID,72,VALID,0.867188,
2004-04-06, 02:49:00,VALID,917.163,VALID,0,VALID,100,VALID,0.0509425,VALID,19.3597,VALID,72,VALID,1.02413,
2004-04-06, 02:50:00,VALID,917.163,VALID,0,VALID,100,VALID,0,VALID,19.3408,VALID,69,VALID,0.674361,
2004-04-06, 02:51:00,VALID,917.168,VALID,0,VALID,100,VALID,0.0339617,VALID,19.3147,VALID,83,VALID,0.653587,
2004-04-06, 02:52:00,VALID,917.181,VALID,0,VALID,100,VALID,0.0339617,VALID,19.2758,VALID,99,VALID,0.608648,
2004-04-06, 02:53:00,VALID,917.197,VALID,0,VALID,100,VALID,0.0169808,VALID,19.2631,VALID,119,VALID,0.724964,
2004-04-06, 02:54:00,VALID,917.202,VALID,0,VALID,100,VALID,0.0169808,VALID,19.2534,VALID,128,VALID,0.680753,
2004-04-06, 02:55:00,VALID,917.202,VALID,0,VALID,100,VALID,0.0339617,VALID,19.244,VALID,123,VALID,0.502976,
2004-04-06, 02:56:00,VALID,917.195,VALID,0,VALID,100,VALID,0.0339617,VALID,19.2181,VALID,95,VALID,0.377308,
2004-04-06, 02:57:00,VALID,917.183,VALID,0,VALID,100,VALID,0.0169808,VALID,19.2243,VALID,78,VALID,0.685369,
2004-04-06, 02:58:00,VALID,917.167,VALID,0,VALID,100,VALID,0.0339617,VALID,19.2216,VALID,76,VALID,0.517857,
2004-04-06, 02:59:00,VALID,917.161,VALID,0,VALID,100,VALID,0.0509425,VALID,19.1955,VALID,84,VALID,0.649325,
2004-04-06, 03:00:00,VALID,917.15,VALID,0,VALID,100,VALID,0.0169808,VALID,19.1729,VALID,76,VALID,0.776867,
2004-04-06, 03:01:00,VALID,917.158,VALID,0,VALID,100,VALID,0.0509425,VALID,19.1699,VALID,62,VALID,0.807478,
2004-04-06, 03:02:00,VALID,917.157,VALID,0,VALID,100,VALID,0,VALID,19.1838,VALID,66,VALID,0.866279,
2004-04-06, 03:03:00,VALID,917.148,VALID,0,VALID,100,VALID,0,VALID,19.2,VALID,62,VALID,0.508789,
2004-04-06, 03:04:00,VALID,917.143,VALID,0,VALID,100,VALID,0,VALID,19.1995,VALID,61,VALID,0.504179,
2004-04-06, 03:05:00,VALID,917.144,VALID,0,VALID,100,VALID,0,VALID,19.1796,VALID,61,VALID,0.523438,
2004-04-06, 03:06:00,VALID,917.143,VALID,0,VALID,100,VALID,0,VALID,19.1543,VALID,65,VALID,0.504192,
2004-04-06, 03:07:00,VALID,917.137,VALID,0,VALID,100,VALID,0.0169808,VALID,19.1215,VALID,93,VALID,0.662109,
2004-04-06, 03:08:00,VALID,917.144,VALID,0,VALID,100,VALID,-0.0169808,VALID,19.116,VALID,119,VALID,0.799132,
2004-04-06, 03:09:00,VALID,917.153,VALID,0,VALID,100,VALID,0,VALID,19.1195,VALID,123,VALID,0.872396,
2004-04-06, 03:10:00,VALID,917.133,VALID,0,VALID,100,VALID,-0.0169808,VALID,19.1324,VALID,105,VALID,0.862827,
2004-04-06, 03:11:00,VALID,917.129,VALID,0,VALID,100,VALID,-0.0169808,VALID,19.119,VALID,80,VALID,0.59282,
2004-04-06, 03:12:00,VALID,917.112,VALID,0,VALID,100,VALID,0,VALID,19.1384,VALID,76,VALID,0.579459,
2004-04-06, 03:13:00,VALID,917.087,VALID,0,VALID,100,VALID,0.0339617,VALID,19.1506,VALID,62,VALID,0.687872,
2004-04-06, 03:14:00,VALID,917.061,VALID,0,VALID,100,VALID,-0.0169808,VALID,19.1644,VALID,72,VALID,0.673328,
2004-04-06, 03:15:00,VALID,917.042,VALID,0,VALID,100,VALID,-0.0169808,VALID,19.1476,VALID,108,VALID,0.817472,
2004-04-06, 03:16:00,VALID,917.012,VALID,0,VALID,100,VALID,0.0169808,VALID,19.1409,VALID,75,VALID,0.6609,
2004-04-06, 03:17:00,VALID,916.995,VALID,0,VALID,100,VALID,-0.0169808,VALID,19.1414,VALID,65,VALID,0.77689,
2004-04-06, 03:18:00,VALID,916.977,VALID,0,VALID,100,VALID,0.0169808,VALID,19.1084,VALID,65,VALID,0.801339,
2004-04-06, 03:19:00,VALID,916.974,VALID,0,VALID,100,VALID,0.0169808,VALID,19.1118,VALID,64,VALID,0.797408,
2004-04-06, 03:20:00,VALID,916.965,VALID,0,VALID,100,VALID,0.0169808,VALID,19.1289,VALID,63,VALID,0.710106,
2004-04-06, 03:21:00,VALID,916.978,VALID,0,VALID,100,VALID,0,VALID,19.1084,VALID,78,VALID,0.736683,
2004-04-06, 03:22:00,VALID,916.973,VALID,0,VALID,100,VALID,0,VALID,19.1381,VALID,107,VALID,0.828299,
2004-04-06, 03:23:00,VALID,916.974,VALID,0,VALID,100,VALID,0.0169808,VALID,19.1543,VALID,124,VALID,0.497954,
2004-04-06, 03:24:00,VALID,916.971,VALID,0,VALID,100,VALID,-0.0339617,VALID,19.161,VALID,133,VALID,0.483631,
2004-04-06, 03:25:00,VALID,916.997,VALID,0,VALID,100,VALID,0,VALID,19.151,VALID,118,VALID,0.682031,
2004-04-06, 03:26:00,VALID,916.998,VALID,0,VALID,100,VALID,-0.0169808,VALID,19.1416,VALID,123,VALID,0.939986,
2004-04-06, 03:27:00,VALID,917.001,VALID,0,VALID,100,VALID,0,VALID,19.1183,VALID,131,VALID,0.97889,
2004-04-06, 03:28:00,VALID,917.004,VALID,0,VALID,100,VALID,-0.0169808,VALID,19.1058,VALID,128,VALID,0.887695,
2004-04-06, 03:29:00,VALID,917.002,VALID,0,VALID,100,VALID,0.0339617,VALID,19.0865,VALID,117,VALID,1.4,
2004-04-06, 03:30:00,VALID,917,VALID,0,VALID,100,VALID,0.0169808,VALID,19.0634,VALID,115,VALID,1.33426,
2004-04-06, 03:31:00,VALID,916.989,VALID,0,VALID,100,VALID,-0.0169808,VALID,19.1031,VALID,126,VALID,1.69764,
2004-04-06, 03:32:00,VALID,916.97,VALID,0,VALID,100,VALID,0,VALID,19.0996,VALID,137,VALID,1.49219,
2004-04-06, 03:33:00,VALID,916.979,VALID,0,VALID,100,VALID,0,VALID,19.1222,VALID,130,VALID,0.948317,
2004-04-06, 03:34:00,VALID,916.977,VALID,0,VALID,100,VALID,0,VALID,19.1252,VALID,126,VALID,1.0642,
2004-04-06, 03:35:00,VALID,916.994,VALID,0,VALID,100,VALID,0,VALID,19.1088,VALID,132,VALID,1.03333,
2004-04-06, 03:36:00,VALID,916.995,VALID,0,VALID,100,VALID,-0.0169808,VALID,19.1192,VALID,120,VALID,0.87035,
2004-04-06, 03:37:00,VALID,916.999,VALID,0,VALID,100,VALID,0,VALID,19.1222,VALID,141,VALID,0.820858,
2004-04-06, 03:38:00,VALID,916.994,VALID,0,VALID,100,VALID,0.0169808,VALID,19.1319,VALID,129,VALID,1.0069,
2004-04-06, 03:39:00,VALID,916.99,VALID,0,VALID,100,VALID,0,VALID,19.1351,VALID,132,VALID,1.04241,
2004-04-06, 03:40:00,VALID,916.976,VALID,0,VALID,100,VALID,-0.0169808,VALID,19.1255,VALID,120,VALID,1.34301,
2004-04-06, 03:41:00,VALID,916.981,VALID,0,VALID,100,VALID,0,VALID,19.1287,VALID,118,VALID,1.66627,